Location: LDNL
(36.4545°S, 141.6685°E)
Time: 12:04:27
(UTC+10:00)

Explorer 7 - Pass Details

Date: 18 August 2022
Orbit: 482 x 668 km, 50.3° (Epoch: 26 September)

Event Time Altitude Azimuth Distance (km) Brightness Sun altitude
Rises 14:31:41 0° 353° (N) 2,962 11.4 33.6°
Reaches altitude 10° 14:34:41 10° 13° (NNE) 2,078 10.4 33.2°
Maximum altitude 14:37:48 17° 53° (NE) 1,669 9.4 32.9°
Drops below altitude 10° 14:40:56 10° 93° (E) 2,108 9.5 32.5°
Sets 14:44:01 0° 112° (ESE) 3,024 10.1 32.1°
